Time,TemperatureF,DewpointF,PressureIn,WindDirection,WindDirectionDegrees,WindSpeedMPH,WindSpeedGustMPH,Humidity,HourlyPrecipIn,Conditions,Clouds,dailyrainin,SoftwareType,DateUTC
2013-06-26 00:02:00,76.0,74.0,29.67,SE,130,0.0,5.0,92,0.00,,,0.00,,2013-06-26 05:02:00,
2013-06-26 00:11:00,76.0,74.0,29.67,SE,130,0.0,0.0,92,0.00,,,0.00,,2013-06-26 05:11:00,
2013-06-26 00:22:00,76.0,74.0,29.67,SE,130,0.0,0.0,92,0.00,,,0.00,,2013-06-26 05:22:00,
2013-06-26 00:34:00,75.0,73.0,29.66,SW,225,0.0,3.0,93,0.00,,,0.00,,2013-06-26 05:34:00,
2013-06-26 00:43:00,75.0,73.0,29.66,SW,229,0.0,4.0,93,0.00,,,0.00,,2013-06-26 05:43:00,
2013-06-26 01:02:00,75.0,73.0,29.65,SSW,192,0.0,4.0,94,0.00,,,0.00,,2013-06-26 06:02:00,
2013-06-26 01:11:00,75.0,73.0,29.65,South,191,0.0,6.0,94,0.00,,,0.00,,2013-06-26 06:11:00,
2013-06-26 01:34:00,74.0,72.0,29.64,ESE,122,2.0,6.0,95,0.00,,,0.00,,2013-06-26 06:34:00,
2013-06-26 01:43:00,74.0,72.0,29.65,ESE,122,0.0,2.0,95,0.00,,,0.00,,2013-06-26 06:43:00,
2013-06-26 02:01:00,74.0,73.0,29.65,ESE,122,0.0,0.0,96,0.00,,,0.00,,2013-06-26 07:01:00,
2013-06-26 02:11:00,74.0,73.0,29.65,ESE,122,0.0,0.0,96,0.00,,,0.00,,2013-06-26 07:11:00,
2013-06-26 02:22:00,74.0,73.0,29.64,ESE,122,0.0,0.0,96,0.00,,,0.00,,2013-06-26 07:22:00,
2013-06-26 02:33:00,74.0,73.0,29.64,SSW,208,0.0,0.0,97,0.00,,,0.00,,2013-06-26 07:33:00,
2013-06-26 02:43:00,74.0,73.0,29.63,SSW,208,0.0,0.0,97,0.00,,,0.00,,2013-06-26 07:43:00,
2013-06-26 02:53:00,73.0,72.0,29.64,SSW,208,0.0,0.0,97,0.00,,,0.00,,2013-06-26 07:53:00,
2013-06-26 03:01:00,73.0,72.0,29.64,SSW,208,0.0,0.0,97,0.00,,,0.00,,2013-06-26 08:01:00,
2013-06-26 03:11:00,73.0,72.0,29.64,SSW,208,0.0,0.0,98,0.00,,,0.00,,2013-06-26 08:11:00,
2013-06-26 03:33:00,72.0,72.0,29.63,SSW,208,0.0,0.0,99,0.00,,,0.00,,2013-06-26 08:33:00,
2013-06-26 03:42:00,72.0,72.0,29.63,SSW,208,0.0,0.0,99,0.00,,,0.00,,2013-06-26 08:42:00,
2013-06-26 04:01:00,72.0,72.0,29.63,SSW,208,0.0,0.0,99,0.00,,,0.00,,2013-06-26 09:01:00,
2013-06-26 04:11:00,72.0,72.0,29.63,SSW,208,0.0,0.0,99,0.00,,,0.00,,2013-06-26 09:11:00,
2013-06-26 04:22:00,72.0,72.0,29.64,SSW,208,0.0,0.0,99,0.00,,,0.00,,2013-06-26 09:22:00,
2013-06-26 04:33:00,71.0,71.0,29.65,SSW,208,0.0,0.0,99,0.00,,,0.00,,2013-06-26 09:33:00,
2013-06-26 04:43:00,71.0,71.0,29.65,SSW,208,0.0,0.0,99,0.00,,,0.00,,2013-06-26 09:43:00,
2013-06-26 05:01:00,71.0,71.0,29.65,SSW,208,0.0,0.0,99,0.00,,,0.00,,2013-06-26 10:01:00,
2013-06-26 05:12:00,71.0,71.0,29.65,SSW,208,0.0,0.0,99,0.00,,,0.00,,2013-06-26 10:12:00,
2013-06-26 05:34:00,71.0,71.0,29.64,SSW,208,0.0,0.0,99,0.00,,,0.00,,2013-06-26 10:34:00,
2013-06-26 05:43:00,71.0,71.0,29.65,SSW,208,0.0,0.0,99,0.00,,,0.00,,2013-06-26 10:43:00,
2013-06-26 05:53:00,71.0,71.0,29.65,SSW,208,0.0,0.0,99,0.00,,,0.00,,2013-06-26 10:53:00,
2013-06-26 06:02:00,71.0,71.0,29.64,SSW,208,0.0,0.0,99,0.00,,,0.00,,2013-06-26 11:02:00,
2013-06-26 06:11:00,71.0,71.0,29.64,SSW,208,0.0,0.0,99,0.00,,,0.00,,2013-06-26 11:11:00,
2013-06-26 06:22:00,71.0,71.0,29.65,SSW,208,0.0,0.0,99,0.00,,,0.00,,2013-06-26 11:22:00,
2013-06-26 06:33:00,71.0,71.0,29.67,SSW,208,0.0,0.0,99,0.00,,,0.00,,2013-06-26 11:33:00,
2013-06-26 06:44:00,71.0,71.0,29.67,SSW,208,0.0,0.0,99,0.00,,,0.00,,2013-06-26 11:44:00,
2013-06-26 07:02:00,71.0,71.0,29.65,SSW,208,0.0,0.0,99,0.00,,,0.00,,2013-06-26 12:02:00,
2013-06-26 07:12:00,71.0,71.0,29.64,SSW,208,0.0,0.0,99,0.00,,,0.00,,2013-06-26 12:12:00,
2013-06-26 07:22:00,72.0,72.0,29.64,SSW,208,0.0,0.0,99,0.00,,,0.00,,2013-06-26 12:22:00,
2013-06-26 07:33:00,72.0,72.0,29.65,SSW,208,0.0,0.0,99,0.00,,,0.00,,2013-06-26 12:33:00,
2013-06-26 07:42:00,73.0,73.0,29.64,SSW,208,0.0,0.0,99,0.00,,,0.00,,2013-06-26 12:42:00,
2013-06-26 07:52:00,73.0,73.0,29.64,SSW,208,0.0,0.0,99,0.00,,,0.00,,2013-06-26 12:52:00,
2013-06-26 08:02:00,74.0,74.0,29.64,SSW,208,0.0,0.0,99,0.00,,,0.00,,2013-06-26 13:02:00,
2013-06-26 08:11:00,74.0,73.0,29.63,SSW,208,0.0,0.0,98,0.00,,,0.00,,2013-06-26 13:11:00,
2013-06-26 08:34:00,75.0,72.0,29.65,ESE,118,0.0,5.0,91,0.00,,,0.00,,2013-06-26 13:34:00,
2013-06-26 08:42:00,75.0,73.0,29.64,ESE,118,0.0,0.0,92,0.00,,,0.00,,2013-06-26 13:42:00,
2013-06-26 09:02:00,76.0,74.0,29.64,ESE,118,0.0,0.0,92,0.00,,,0.00,,2013-06-26 14:02:00,
2013-06-26 09:12:00,76.0,74.0,29.64,ESE,118,0.0,0.0,92,0.00,,,0.00,,2013-06-26 14:12:00,
2013-06-26 09:24:00,76.0,74.0,29.64,ESE,118,0.0,0.0,92,0.00,,,0.00,,2013-06-26 14:24:00,
2013-06-26 09:34:00,76.0,74.0,29.64,ESE,118,0.0,0.0,92,0.00,,,0.00,,2013-06-26 14:34:00,
2013-06-26 09:42:00,76.0,74.0,29.64,ESE,118,0.0,0.0,92,0.00,,,0.00,,2013-06-26 14:42:00,
2013-06-26 10:02:00,76.0,73.0,29.66,SSW,205,0.0,4.0,91,0.00,,,0.00,,2013-06-26 15:02:00,
2013-06-26 10:11:00,76.0,73.0,29.66,SW,233,0.0,5.0,89,0.00,,,0.00,,2013-06-26 15:11:00,
2013-06-26 10:34:00,76.0,73.0,29.67,WSW,239,0.0,8.0,89,0.00,,,0.00,,2013-06-26 15:34:00,
2013-06-26 10:44:00,76.0,72.0,29.67,West,261,4.0,9.0,88,0.00,,,0.00,,2013-06-26 15:44:00,
2013-06-26 10:53:00,76.0,72.0,29.67,NNW,333,5.0,8.0,88,0.00,,,0.00,,2013-06-26 15:53:00,
2013-06-26 11:01:00,76.0,73.0,29.67,West,278,5.0,6.0,89,0.00,,,0.00,,2013-06-26 16:01:00,
2013-06-26 11:11:00,76.0,73.0,29.68,NNE,25,0.0,8.0,90,0.00,,,0.00,,2013-06-26 16:11:00,
2013-06-26 11:34:00,76.0,73.0,29.68,WNW,286,0.0,7.0,89,0.00,,,0.00,,2013-06-26 16:34:00,
2013-06-26 11:43:00,77.0,72.0,29.68,NW,310,0.0,8.0,86,0.00,,,0.00,,2013-06-26 16:43:00,
2013-06-26 11:52:00,77.0,72.0,29.68,West,272,0.0,6.0,86,0.00,,,0.00,,2013-06-26 16:52:00,
2013-06-26 12:02:00,78.0,73.0,29.67,WSW,248,0.0,5.0,84,0.00,,,0.00,,2013-06-26 17:02:00,
2013-06-26 12:11:00,79.0,72.0,29.67,NW,313,6.0,10.0,80,0.00,,,0.00,,2013-06-26 17:11:00,
2013-06-26 12:23:00,79.0,73.0,29.67,South,185,3.0,7.0,82,0.00,,,0.00,,2013-06-26 17:23:00,
2013-06-26 12:33:00,80.0,72.0,29.67,West,277,0.0,9.0,78,0.00,,,0.00,,2013-06-26 17:33:00,
2013-06-26 12:43:00,81.0,73.0,29.67,NNW,338,8.0,10.0,76,0.00,,,0.00,,2013-06-26 17:43:00,
2013-06-26 13:01:00,80.0,71.0,29.66,WNW,296,5.0,12.0,75,0.00,,,0.00,,2013-06-26 18:01:00,
2013-06-26 13:11:00,80.0,72.0,29.66,West,274,5.0,13.0,76,0.00,,,0.00,,2013-06-26 18:11:00,
2013-06-26 13:22:00,81.0,73.0,29.66,NNW,343,8.0,13.0,78,0.00,,,0.00,,2013-06-26 18:22:00,
2013-06-26 13:34:00,81.0,71.0,29.67,NW,312,6.0,7.0,72,0.00,,,0.00,,2013-06-26 18:34:00,
2013-06-26 13:43:00,81.0,71.0,29.66,WNW,299,6.0,11.0,72,0.00,,,0.00,,2013-06-26 18:43:00,
2013-06-26 14:02:00,82.0,71.0,29.66,NW,319,9.0,14.0,69,0.00,,,0.00,,2013-06-26 19:02:00,
2013-06-26 14:11:00,82.0,70.0,29.66,West,260,5.0,14.0,68,0.00,,,0.00,,2013-06-26 19:11:00,
2013-06-26 14:33:00,83.0,70.0,29.67,WSW,243,5.0,11.0,66,0.00,,,0.00,,2013-06-26 19:33:00,
2013-06-26 14:42:00,82.0,69.0,29.67,NNE,14,5.0,14.0,65,0.00,,,0.00,,2013-06-26 19:42:00,
2013-06-26 15:01:00,83.0,67.0,29.68,NW,310,5.0,13.0,59,0.00,,,0.00,,2013-06-26 20:01:00,
2013-06-26 15:12:00,84.0,68.0,29.68,NW,316,0.0,8.0,59,0.00,,,0.00,,2013-06-26 20:12:00,
2013-06-26 15:33:00,83.0,68.0,29.68,North,2,6.0,12.0,60,0.00,,,0.00,,2013-06-26 20:33:00,
2013-06-26 15:43:00,83.0,68.0,29.68,NNW,341,3.0,13.0,61,0.00,,,0.00,,2013-06-26 20:43:00,
2013-06-26 15:52:00,83.0,68.0,29.68,North,8,7.0,19.0,61,0.00,,,0.00,,2013-06-26 20:52:00,
2013-06-26 16:02:00,84.0,68.0,29.69,North,5,13.0,15.0,58,0.00,,,0.00,,2013-06-26 21:02:00,
2013-06-26 16:11:00,83.0,68.0,29.69,North,4,5.0,13.0,61,0.00,,,0.00,,2013-06-26 21:11:00,
2013-06-26 16:23:00,83.0,68.0,29.69,North,4,5.0,13.0,61,0.00,,,0.00,,2013-06-26 21:23:00,
2013-06-26 16:33:00,84.0,67.0,29.70,West,275,4.0,15.0,57,0.00,,,0.00,,2013-06-26 21:33:00,
2013-06-26 16:43:00,83.0,66.0,29.70,NE,46,3.0,15.0,56,0.00,,,0.00,,2013-06-26 21:43:00,
2013-06-26 16:52:00,83.0,65.0,29.71,NNW,343,10.0,13.0,55,0.00,,,0.00,,2013-06-26 21:52:00,
2013-06-26 17:01:00,83.0,66.0,29.70,NW,322,6.0,17.0,56,0.00,,,0.00,,2013-06-26 22:01:00,
2013-06-26 17:11:00,83.0,66.0,29.70,NW,322,6.0,17.0,56,0.00,,,0.00,,2013-06-26 22:11:00,
2013-06-26 17:34:00,83.0,67.0,29.71,NNW,348,5.0,12.0,58,0.00,,,0.00,,2013-06-26 22:34:00,
2013-06-26 17:43:00,82.0,66.0,29.70,NNE,28,8.0,14.0,58,0.00,,,0.00,,2013-06-26 22:43:00,
2013-06-26 17:52:00,82.0,66.0,29.70,North,358,6.0,16.0,58,0.00,,,0.00,,2013-06-26 22:52:00,
2013-06-26 18:02:00,82.0,66.0,29.71,North,7,3.0,15.0,59,0.00,,,0.00,,2013-06-26 23:02:00,
2013-06-26 18:11:00,82.0,66.0,29.70,NE,49,7.0,13.0,58,0.00,,,0.00,,2013-06-26 23:11:00,
2013-06-26 18:34:00,81.0,65.0,29.71,NNE,29,9.0,16.0,59,0.00,,,0.00,,2013-06-26 23:34:00,
2013-06-26 18:43:00,81.0,65.0,29.71,NW,310,7.0,12.0,59,0.00,,,0.00,,2013-06-26 23:43:00,
2013-06-26 18:52:00,81.0,65.0,29.72,North,7,4.0,13.0,59,0.00,,,0.00,,2013-06-26 23:52:00,
2013-06-26 19:01:00,81.0,66.0,29.72,NW,317,5.0,8.0,61,0.00,,,0.00,,2013-06-27 00:01:00,
2013-06-26 19:11:00,81.0,66.0,29.72,NNE,23,0.0,13.0,61,0.00,,,0.00,,2013-06-27 00:11:00,
2013-06-26 19:33:00,81.0,66.0,29.72,NNW,334,6.0,9.0,61,0.00,,,0.00,,2013-06-27 00:33:00,
2013-06-26 19:42:00,80.0,66.0,29.73,WNW,293,0.0,10.0,62,0.00,,,0.00,,2013-06-27 00:42:00,
2013-06-26 19:53:00,80.0,66.0,29.73,North,358,0.0,7.0,62,0.00,,,0.00,,2013-06-27 00:53:00,
2013-06-26 20:01:00,80.0,66.0,29.73,NNW,329,2.0,11.0,62,0.00,,,0.00,,2013-06-27 01:01:00,
2013-06-26 20:11:00,80.0,66.0,29.73,North,352,5.0,9.0,63,0.00,,,0.00,,2013-06-27 01:11:00,
2013-06-26 20:21:00,80.0,66.0,29.73,NE,54,1.0,8.0,63,0.00,,,0.00,,2013-06-27 01:21:00,
2013-06-26 20:32:00,80.0,66.0,29.73,NNW,329,0.0,7.0,63,0.00,,,0.00,,2013-06-27 01:32:00,
2013-06-26 20:42:00,78.0,65.0,29.74,NNW,333,0.0,6.0,65,0.00,,,0.00,,2013-06-27 01:42:00,
2013-06-26 20:53:00,78.0,66.0,29.74,WSW,237,3.0,7.0,66,0.00,,,0.00,,2013-06-27 01:53:00,
2013-06-26 21:01:00,78.0,66.0,29.74,West,278,0.0,5.0,66,0.00,,,0.00,,2013-06-27 02:01:00,
2013-06-26 21:11:00,78.0,66.0,29.74,WSW,253,0.0,6.0,67,0.00,,,0.00,,2013-06-27 02:11:00,
2013-06-26 21:22:00,78.0,66.0,29.74,WSW,253,0.0,6.0,67,0.00,,,0.00,,2013-06-27 02:22:00,
2013-06-26 21:32:00,77.0,66.0,29.74,North,358,0.0,6.0,68,0.00,,,0.00,,2013-06-27 02:32:00,
2013-06-26 21:42:00,77.0,66.0,29.74,North,358,0.0,6.0,68,0.00,,,0.00,,2013-06-27 02:42:00,
2013-06-26 21:52:00,76.0,65.0,29.75,NNE,29,0.0,9.0,69,0.00,,,0.00,,2013-06-27 02:52:00,
2013-06-26 22:02:00,76.0,65.0,29.76,North,358,0.0,3.0,69,0.00,,,0.00,,2013-06-27 03:02:00,
2013-06-26 22:11:00,76.0,65.0,29.76,North,358,0.0,3.0,69,0.00,,,0.00,,2013-06-27 03:11:00,
2013-06-26 22:21:00,75.0,65.0,29.77,North,358,0.0,6.0,70,0.00,,,0.00,,2013-06-27 03:21:00,
2013-06-26 22:32:00,75.0,65.0,29.77,SW,227,0.0,4.0,70,0.00,,,0.00,,2013-06-27 03:32:00,
2013-06-26 22:42:00,75.0,65.0,29.78,West,271,0.0,0.0,70,0.00,,,0.00,,2013-06-27 03:42:00,
2013-06-26 22:52:00,74.0,64.0,29.78,West,271,0.0,0.0,71,0.00,,,0.00,,2013-06-27 03:52:00,
2013-06-26 23:01:00,74.0,64.0,29.79,West,271,0.0,0.0,71,0.00,,,0.00,,2013-06-27 04:01:00,
2013-06-26 23:11:00,74.0,64.0,29.79,West,271,0.0,0.0,71,0.00,,,0.00,,2013-06-27 04:11:00,
2013-06-26 23:32:00,74.0,64.0,29.79,West,277,0.0,5.0,72,0.00,,,0.00,,2013-06-27 04:32:00,
2013-06-26 23:42:00,72.0,64.0,29.80,WSW,244,0.0,0.0,77,0.00,,,0.00,,2013-06-27 04:42:00,
2013-06-26 23:53:00,72.0,65.0,29.79,WSW,244,0.0,0.0,78,0.00,,,0.00,,2013-06-27 04:53:00,